Change the Weather History Date:

Tuesday, June 3, 2014

  Actual Average Record
Temperature  
Mean Temperature 76 °F 68 °F  
Max Temperature 88 °F 78 °F 94 °F (1943)
Min Temperature 64 °F 59 °F 45 °F (1946)
Degree Days  
Heating Degree Days 0 1  
Month to date heating degree days 0 5  
Since 1 June heating degree days 0 5  
Since 1 July heating degree days 5166 4860  
Cooling Degree Days 11 5  
Month to date cooling degree days 16 14  
Year to date cooling degree days 78 90  
Since 1 June cooling degree days 16 14  
Growing Degree Days 26 (Base 50)    
Moisture  
Dew Point 63 °F    
Average Humidity 69    
Maximum Humidity 93    
Minimum Humidity 45    
Precipitation  
Precipitation 0.72 in 0.14 in 2.65 in (1996)
Month to date precipitation 0.72 0.43  
Year to date precipitation 24.07 19.32  
Snow  
Snow 0.00 in 0.00 in 0.00 in (2002)
Month to date snowfall 0.0 0.0  
Since 1 July snowfall 61.1 28.5  
Snow Depth 0.00 in    
Sea Level Pressure  
Sea Level Pressure 29.90 in    
Wind  
Wind Speed 6 mph (South)    
Max Wind Speed 35 mph    
Max Gust Speed 41 mph    
Visibility 9 miles    
Events Rain , Thunderstorm    
T = Trace of Precipitation, MM = Missing Value Source: NWS Daily Summary

Daily Weather History Graph

Daily Weather History Graph

Search for Another Location

Airport or City:

Trip Planner

Search our weather history database for the weather conditions in past years. The results will help you decide how hot, cold, wet, or windy it might be!

Date:

Astronomy

Jun. 03, 2014 Rise Set
Actual Time 5:27 AM EDT 8:23 PM EDT
Civil Twilight 4:54 AM EDT 8:55 PM EDT
Nautical Twilight 4:12 AM EDT 9:37 PM EDT
Astronomical Twilight 3:24 AM EDT 10:25 PM EDT
Moon 10:48 AM EDT (6/3) No Moon Set
Length of Visible Light 16h 01m
Length of Day
14h 55m
Waxing Crescent, 30% of the Moon is Illuminated
Jun 3
Waxing Crescent
Jun 5
First Quarter
Jun 13
Full
Jun 19
Last Quarter
Jun 27
New

Hourly Weather History & Observations

Time (EDT) Temp. Heat Index Dew Point Humidity Pressure Visibility Wind Dir Wind Speed Gust Speed Precip Events Conditions
12:51 AM 68.0 °F - 55.0 °F 63% 30.03 in 10.0 mi SSW 5.8 mph - N/A   Partly Cloudy
1:51 AM 69.1 °F - 55.0 °F 61% 30.02 in 10.0 mi SW 6.9 mph - N/A   Partly Cloudy
2:51 AM 66.0 °F - 55.0 °F 68% 30.00 in 10.0 mi SSW 5.8 mph - N/A   Partly Cloudy
3:51 AM 64.0 °F - 55.0 °F 73% 30.00 in 10.0 mi SSW 6.9 mph - N/A   Partly Cloudy
4:51 AM 64.9 °F - 55.9 °F 73% 29.99 in 10.0 mi WSW 6.9 mph - N/A   Scattered Clouds
5:51 AM 64.9 °F - 55.9 °F 73% 29.99 in 10.0 mi SW 8.1 mph - N/A   Scattered Clouds
6:51 AM 66.9 °F - 57.0 °F 70% 29.99 in 10.0 mi SW 5.8 mph - N/A   Partly Cloudy
7:51 AM 70.0 °F - 57.9 °F 65% 29.98 in 10.0 mi SW 5.8 mph - N/A   Scattered Clouds
8:51 AM 73.9 °F - 59.0 °F 59% 29.96 in 10.0 mi Variable 5.8 mph - N/A   Partly Cloudy
9:51 AM 79.0 °F - 61.0 °F 54% 29.95 in 10.0 mi Calm Calm - N/A   Partly Cloudy
10:51 AM 81.0 °F 81.9 °F 62.1 °F 52% 29.94 in 10.0 mi Calm Calm - N/A   Scattered Clouds
11:51 AM 82.0 °F 83.1 °F 63.0 °F 52% 29.93 in 10.0 mi ESE 6.9 mph - N/A   Scattered Clouds
12:51 PM 86.0 °F 86.8 °F 63.0 °F 46% 29.91 in 10.0 mi SSE 8.1 mph - N/A   Scattered Clouds
1:51 PM 86.0 °F 87.3 °F 64.0 °F 48% 29.87 in 10.0 mi South 9.2 mph - N/A   Mostly Cloudy
2:51 PM 82.9 °F 83.7 °F 62.1 °F 49% 29.85 in 10.0 mi ESE 13.8 mph - N/A   Mostly Cloudy
3:51 PM 82.9 °F 83.7 °F 62.1 °F 49% 29.83 in 10.0 mi ESE 16.1 mph - N/A   Mostly Cloudy
4:51 PM 84.0 °F 84.9 °F 63.0 °F 49% 29.81 in 10.0 mi SE 11.5 mph - N/A   Mostly Cloudy
5:05 PM 82.4 °F 83.4 °F 62.6 °F 51% 29.81 in 10.0 mi South 16.1 mph 29.9 mph N/A Thunderstorm Thunderstorm
5:18 PM 73.4 °F - 69.8 °F 88% 29.85 in 0.5 mi West 27.6 mph 41.4 mph 0.00 in Rain , Thunderstorm Heavy Thunderstorms and Rain
5:36 PM 71.6 °F - 69.8 °F 94% 29.86 in 2.0 mi NNW 13.8 mph - 0.56 in Rain , Thunderstorm Thunderstorms and Rain
5:40 PM 71.6 °F - 69.8 °F 94% 29.86 in 5.0 mi NNW 12.7 mph - 0.57 in Rain , Thunderstorm Light Thunderstorms and Rain
5:51 PM 72.0 °F - 68.0 °F 87% 29.86 in 8.0 mi North 8.1 mph - 0.60 in Rain , Thunderstorm Light Thunderstorms and Rain
6:14 PM 73.4 °F - 69.8 °F 88% 29.85 in 8.0 mi Calm Calm - 0.06 in Rain Light Rain
6:51 PM 71.1 °F - 70.0 °F 96% 29.84 in 10.0 mi Calm Calm - 0.12 in   Mostly Cloudy
7:51 PM 71.1 °F - 69.1 °F 93% 29.83 in 10.0 mi East 3.5 mph - 0.01 in   Mostly Cloudy
8:51 PM 73.0 °F - 69.1 °F 87% 29.82 in 10.0 mi ENE 3.5 mph - N/A   Mostly Cloudy
9:51 PM 73.0 °F - 68.0 °F 84% 29.83 in 10.0 mi Calm Calm - N/A   Mostly Cloudy
10:51 PM 70.0 °F - 64.9 °F 84% 29.84 in 10.0 mi ESE 6.9 mph - N/A   Mostly Cloudy
11:51 PM 68.0 °F - 64.0 °F 87% 29.83 in 10.0 mi East 6.9 mph - N/A   Scattered Clouds